< < Back
Terminal Aerodrome Forecast


Current Version              Previous Versions:   1  2  3  4  5  6  7  8  9  

Terminal Aerodrome Forecast

241
FTUS42 KCAE 271300 AAA
TAFCAE
TAF AMD
KCAE 271309Z 2713/2812 29015G25KT P6SM SCT050
     FM272300 31008KT P6SM SKC
     FM280600 32004KT P6SM SKC=



Latest METAR

396
SAUS80 KWBC 271300
MTRCAE
METAR KCAE 271256Z 27017G20KT 10SM CLR 08/M01 A3009 RMK AO2 SLP188
T00781006


USA.gov is the U.S. government's official web portal to all federal, state and local government web resources and services.